Overview Statistics Trail Chart Weather Telemetry Raw packets
 

This is the latest recevied weather packets stored in our database for station/object KB9HUO. If no packets are shown the sender has not sent any weather packets the latest 10 day(s).

<< 4 5 6 7 8 9 10 >>
Time Temp. Humidity Pressure Rain* Wind** Luminosity Snow
1788633062 35° C 55% 1014.4 hPa 0 mm - 657 W/m² -
1788632762 35° C 56% 1014.5 hPa 0 mm - 661 W/m² -
1788632457 34.44° C 57% 1014.4 hPa 0 mm - 670 W/m² -
1788632156 34.44° C 56% 1014.5 hPa 0 mm - 676 W/m² -
1788631855 34.44° C 57% 1014.5 hPa 0 mm - 679 W/m² -
1788631550 34.44° C 57% 1014.4 hPa 0 mm - 682 W/m² -
1788631246 33.89° C 57% 1014.6 hPa 0 mm - 689 W/m² -
1788630945 33.89° C 56% 1014.8 hPa 0 mm - 691 W/m² -
1788630641 33.89° C 57% 1014.5 hPa 0 mm - 694 W/m² -
1788630336 33.33° C 59% 1014.8 hPa 0 mm - 699 W/m² -
1788630032 33.33° C 59% 1014.8 hPa 0 mm - 699 W/m² -
1788629729 33.89° C 57% 1015.1 hPa 0 mm - 699 W/m² -
1788629429 33.89° C 57% 1015.1 hPa 0 mm - 700 W/m² -
1788629127 33.89° C 57% 1015 hPa 0 mm - 699 W/m² -
1788628823 33.89° C 56% 1015 hPa 0 mm - 696 W/m² -
1788628519 33.89° C 57% 1015 hPa 0 mm - 695 W/m² -
1788628215 33.33° C 58% 1015.2 hPa 0 mm - 691 W/m² -
1788627911 33.33° C 58% 1015 hPa 0 mm - 692 W/m² -
1788627606 32.78° C 60% 1015.2 hPa 0 mm - 686 W/m² -
1788627301 32.78° C 60% 1015.2 hPa 0 mm - 682 W/m² -
1788626996 32.22° C 62% 1015.3 hPa 0 mm - 682 W/m² -
1788626695 32.22° C 60% 1015.3 hPa 0 mm - 678 W/m² -
1788626390 32.22° C 60% 1015.5 hPa 0 mm - 671 W/m² -
1788626087 32.22° C 63% 1015.3 hPa 0 mm - 665 W/m² -
1788625783 31.67° C 62% 1015.3 hPa 0 mm - 657 W/m² -

* Rain latest hour (hover to see other rain measurements)
** Current wind speed in m/s (hover to see current wind gust speed)